Location: D�nning
(49.2479°N, 12.8491°E)
Time: 08:04:36
(UTC+00:00)

SPOT 1/Viking Rocket - Pass Details

Date: 18 September 2020
Orbit: 777 x 794 km, 98.5° (Epoch: 24 October)

Event Time Altitude Azimuth Distance (km) Brightness Sun altitude
Exits shadow 19:33:45 39° 71° (ENE) 1,167 4.1 -22.4°
Maximum altitude 19:33:57 39° 66° (ENE) 1,164 4.1 -22.4°
Drops below altitude 10° 19:38:44 10° 358° (N) 2,352 6.4 -23.1°
Sets 19:41:10 0° 352° (N) 3,282 7.4 -23.4°
